,,,PA_Meas_PMT16A,,PR_Meas_QMR101_102,,RH_Meas_QMH101,,SR_Meas_QMS101,,TA_Meas_QMH101,,GenWind,,GenWind,
date,time,status,PA,status,PR,status,RH,status,SR,status,TA,status,DirAvg,status,SpdAvg,
2012-09-22, 00:00:04,VALID,1010.63,VALID,0,VALID,104,VALID,0,VALID,22.7004,VALID,15,VALID,0,
2012-09-22, 00:01:04,VALID,1010.63,VALID,0,VALID,104,VALID,0,VALID,22.6792,VALID,15,VALID,0,
2012-09-22, 00:02:04,VALID,1010.63,VALID,0,VALID,104,VALID,0,VALID,22.6597,VALID,15,VALID,0,
2012-09-22, 00:03:04,VALID,1010.62,VALID,0,VALID,104,VALID,0,VALID,22.6809,VALID,15,VALID,0,
2012-09-22, 00:04:04,VALID,1010.63,VALID,0,VALID,104,VALID,0,VALID,22.6614,VALID,15,VALID,0,
2012-09-22, 00:05:04,VALID,1010.62,VALID,0,VALID,104,VALID,0,VALID,22.642,VALID,15,VALID,0,
2012-09-22, 00:06:04,VALID,1010.64,VALID,0,VALID,104,VALID,0,VALID,22.642,VALID,15,VALID,0,
2012-09-22, 00:07:04,VALID,1010.64,VALID,0,VALID,104,VALID,0,VALID,22.6208,VALID,15,VALID,0,
2012-09-22, 00:08:04,VALID,1010.62,VALID,0,VALID,104,VALID,0,VALID,22.6225,VALID,15,VALID,0,
2012-09-22, 00:09:04,VALID,1010.64,VALID,0,VALID,104,VALID,0,VALID,22.6225,VALID,15,VALID,0,
2012-09-22, 00:10:04,VALID,1010.64,VALID,0,VALID,104,VALID,0,VALID,22.603,VALID,13,VALID,0,
2012-09-22, 00:11:04,VALID,1010.64,VALID,0,VALID,104,VALID,0,VALID,22.603,VALID,13,VALID,0,
2012-09-22, 00:12:04,VALID,1010.69,VALID,0,VALID,104,VALID,0,VALID,22.5818,VALID,13,VALID,0,
2012-09-22, 00:13:04,VALID,1010.68,VALID,0,VALID,104,VALID,0,VALID,22.5835,VALID,8,VALID,0,
2012-09-22, 00:14:04,VALID,1010.69,VALID,0,VALID,104,VALID,0,VALID,22.5835,VALID,7,VALID,0,
2012-09-22, 00:15:04,VALID,1010.68,VALID,0,VALID,104,VALID,0,VALID,22.5835,VALID,6,VALID,0,
2012-09-22, 00:16:04,VALID,1010.67,VALID,0,VALID,104,VALID,0.112112,VALID,22.5818,VALID,6,VALID,0,
2012-09-22, 00:17:04,VALID,1010.66,VALID,0,VALID,104,VALID,0,VALID,22.5623,VALID,6,VALID,0,
2012-09-22, 00:18:04,VALID,1010.62,VALID,0,VALID,104,VALID,0.112112,VALID,22.5623,VALID,6,VALID,0,
2012-09-22, 00:19:04,VALID,1010.6,VALID,0,VALID,104,VALID,0,VALID,22.603,VALID,6,VALID,0,
2012-09-22, 00:20:04,VALID,1010.61,VALID,0,VALID,104,VALID,0.112112,VALID,22.603,VALID,6,VALID,0,
2012-09-22, 00:21:04,VALID,1010.59,VALID,0,VALID,104,VALID,0.112112,VALID,22.5818,VALID,360,VALID,0,
2012-09-22, 00:22:04,VALID,1010.59,VALID,0,VALID,104,VALID,0.112112,VALID,22.603,VALID,346,VALID,0,
2012-09-22, 00:23:04,VALID,1010.58,VALID,0,VALID,104,VALID,0,VALID,22.603,VALID,346,VALID,0,
2012-09-22, 00:24:04,VALID,1010.58,VALID,0,VALID,104,VALID,0,VALID,22.5835,VALID,346,VALID,0,
2012-09-22, 00:25:04,VALID,1010.6,VALID,0,VALID,104,VALID,0.112112,VALID,22.5818,VALID,343,VALID,0,
2012-09-22, 00:26:04,VALID,1010.56,VALID,0,VALID,104,VALID,0.112112,VALID,22.5818,VALID,336,VALID,0,
2012-09-22, 00:27:04,VALID,1010.57,VALID,0,VALID,104,VALID,0.112112,VALID,22.603,VALID,336,VALID,0,
2012-09-22, 00:28:04,VALID,1010.57,VALID,0,VALID,104,VALID,0.112112,VALID,22.5835,VALID,336,VALID,0,
2012-09-22, 00:29:04,VALID,1010.57,VALID,0,VALID,104,VALID,0.112112,VALID,22.5623,VALID,336,VALID,0,
2012-09-22, 00:30:04,VALID,1010.55,VALID,0,VALID,104,VALID,0,VALID,22.5429,VALID,336,VALID,0,
2012-09-22, 00:31:04,VALID,1010.54,VALID,0,VALID,104,VALID,0,VALID,22.5429,VALID,336,VALID,0,
2012-09-22, 00:32:04,VALID,1010.53,VALID,0,VALID,104,VALID,0,VALID,22.564,VALID,334,VALID,0,
2012-09-22, 00:33:04,VALID,1010.53,VALID,0,VALID,104,VALID,0,VALID,22.5446,VALID,345,VALID,0,
2012-09-22, 00:34:04,VALID,1010.52,VALID,0,VALID,104,VALID,0,VALID,22.564,VALID,345,VALID,0,
2012-09-22, 00:35:04,VALID,1010.53,VALID,0,VALID,104,VALID,0,VALID,22.5446,VALID,345,VALID,0,
2012-09-22, 00:36:04,VALID,1010.52,VALID,0,VALID,104,VALID,0.112112,VALID,22.5446,VALID,345,VALID,0,
2012-09-22, 00:37:04,VALID,1010.53,VALID,0,VALID,104,VALID,0,VALID,22.5446,VALID,345,VALID,0,
2012-09-22, 00:38:04,VALID,1010.52,VALID,0,VALID,104,VALID,0.112112,VALID,22.5429,VALID,345,VALID,0,
2012-09-22, 00:39:04,VALID,1010.49,VALID,0,VALID,104,VALID,0.112112,VALID,22.5234,VALID,345,VALID,0,
2012-09-22, 00:40:04,VALID,1010.49,VALID,0,VALID,104,VALID,0,VALID,22.5446,VALID,344,VALID,0,
2012-09-22, 00:41:04,VALID,1010.45,VALID,0,VALID,104,VALID,0,VALID,22.5234,VALID,357,VALID,0,
2012-09-22, 00:42:04,VALID,1010.44,VALID,0,VALID,104,VALID,0,VALID,22.5234,VALID,357,VALID,0,
2012-09-22, 00:43:04,VALID,1010.43,VALID,0,VALID,104,VALID,0,VALID,22.5446,VALID,344,VALID,0,
2012-09-22, 00:44:04,VALID,1010.41,VALID,0,VALID,104,VALID,0,VALID,22.564,VALID,344,VALID,0,
2012-09-22, 00:45:04,VALID,1010.42,VALID,0,VALID,104,VALID,0.112112,VALID,22.5429,VALID,344,VALID,0,
2012-09-22, 00:46:04,VALID,1010.42,VALID,0,VALID,104,VALID,0,VALID,22.5251,VALID,344,VALID,0,
2012-09-22, 00:47:04,VALID,1010.44,VALID,0,VALID,104,VALID,0.112112,VALID,22.5234,VALID,342,VALID,0,
2012-09-22, 00:48:04,VALID,1010.45,VALID,0,VALID,104,VALID,0,VALID,22.5234,VALID,342,VALID,0,
2012-09-22, 00:49:04,VALID,1010.44,VALID,0,VALID,104,VALID,0.112112,VALID,22.5251,VALID,342,VALID,0,
2012-09-22, 00:50:04,VALID,1010.42,VALID,0,VALID,104,VALID,0,VALID,22.5039,VALID,342,VALID,0,
2012-09-22, 00:51:04,VALID,1010.4,VALID,0,VALID,104,VALID,0,VALID,22.4844,VALID,342,VALID,0,
2012-09-22, 00:52:04,VALID,1010.36,VALID,0,VALID,104,VALID,0.112112,VALID,22.5039,VALID,342,VALID,0,
2012-09-22, 00:53:04,VALID,1010.33,VALID,0,VALID,104,VALID,0.112112,VALID,22.5056,VALID,342,VALID,0,
2012-09-22, 00:54:04,VALID,1010.33,VALID,0,VALID,104,VALID,0,VALID,22.5056,VALID,342,VALID,0,
2012-09-22, 00:55:04,VALID,1010.3,VALID,0,VALID,104,VALID,0,VALID,22.5039,VALID,342,VALID,0,
2012-09-22, 00:56:04,VALID,1010.3,VALID,0,VALID,104,VALID,0,VALID,22.5039,VALID,342,VALID,0,
2012-09-22, 00:57:04,VALID,1010.29,VALID,0,VALID,104,VALID,0.112112,VALID,22.5039,VALID,342,VALID,0,
2012-09-22, 00:58:04,VALID,1010.29,VALID,0,VALID,104,VALID,0.112112,VALID,22.5039,VALID,342,VALID,0,
2012-09-22, 00:59:04,VALID,1010.31,VALID,0,VALID,104,VALID,0.112112,VALID,22.5039,VALID,342,VALID,0,
2012-09-22, 01:00:04,VALID,1010.31,VALID,0,VALID,104,VALID,0.112112,VALID,22.5251,VALID,342,VALID,0,
2012-09-22, 01:01:04,VALID,1010.36,VALID,0,VALID,104,VALID,0,VALID,22.5251,VALID,342,VALID,0,
2012-09-22, 01:02:04,VALID,1010.34,VALID,0,VALID,104,VALID,0.112112,VALID,22.5039,VALID,342,VALID,0,
2012-09-22, 01:03:04,VALID,1010.37,VALID,0,VALID,104,VALID,0.112112,VALID,22.5234,VALID,342,VALID,0,
2012-09-22, 01:04:04,VALID,1010.37,VALID,0,VALID,104,VALID,0,VALID,22.5039,VALID,342,VALID,0,
2012-09-22, 01:05:04,VALID,1010.33,VALID,0,VALID,104,VALID,0,VALID,22.5446,VALID,342,VALID,0,
2012-09-22, 01:06:04,VALID,1010.32,VALID,0,VALID,104,VALID,0,VALID,22.5429,VALID,342,VALID,0,
2012-09-22, 01:07:04,VALID,1010.3,VALID,0,VALID,104,VALID,0.112112,VALID,22.5234,VALID,342,VALID,0,
2012-09-22, 01:08:04,VALID,1010.3,VALID,0,VALID,104,VALID,0.112112,VALID,22.5446,VALID,342,VALID,0,
2012-09-22, 01:09:04,VALID,1010.28,VALID,0,VALID,104,VALID,0,VALID,22.5446,VALID,342,VALID,0,
2012-09-22, 01:10:04,VALID,1010.29,VALID,0,VALID,104,VALID,0.112112,VALID,22.5234,VALID,342,VALID,0,
2012-09-22, 01:11:04,VALID,1010.31,VALID,0,VALID,104,VALID,0.112112,VALID,22.5056,VALID,6,VALID,0,
2012-09-22, 01:12:04,VALID,1010.29,VALID,0,VALID,104,VALID,0.112112,VALID,22.5251,VALID,13,VALID,0,
2012-09-22, 01:13:04,VALID,1010.29,VALID,0,VALID,104,VALID,0.112112,VALID,22.5056,VALID,13,VALID,0,
2012-09-22, 01:14:04,VALID,1010.29,VALID,0,VALID,104,VALID,0.112112,VALID,22.4844,VALID,13,VALID,0,
2012-09-22, 01:15:04,VALID,1010.26,VALID,0,VALID,104,VALID,0,VALID,22.465,VALID,13,VALID,0,
2012-09-22, 01:16:04,VALID,1010.26,VALID,0,VALID,104,VALID,0.112112,VALID,22.465,VALID,13,VALID,0,
2012-09-22, 01:17:04,VALID,1010.27,VALID,0,VALID,104,VALID,0,VALID,22.4667,VALID,13,VALID,0,
2012-09-22, 01:18:04,VALID,1010.27,VALID,0,VALID,104,VALID,0,VALID,22.4667,VALID,13,VALID,0,
2012-09-22, 01:19:04,VALID,1010.23,VALID,0,VALID,104,VALID,0,VALID,22.4472,VALID,13,VALID,0,
2012-09-22, 01:20:04,VALID,1010.25,VALID,0,VALID,104,VALID,0,VALID,22.4684,VALID,13,VALID,0,
2012-09-22, 01:21:04,VALID,1010.27,VALID,0,VALID,104,VALID,0,VALID,22.4684,VALID,13,VALID,0,
2012-09-22, 01:22:04,VALID,1010.29,VALID,0,VALID,104,VALID,0,VALID,22.4472,VALID,13,VALID,0,
2012-09-22, 01:23:04,VALID,1010.29,VALID,0,VALID,104,VALID,0,VALID,22.4684,VALID,13,VALID,0,
2012-09-22, 01:24:04,VALID,1010.3,VALID,0,VALID,104,VALID,0,VALID,22.4667,VALID,23,VALID,0,
2012-09-22, 01:25:04,VALID,1010.3,VALID,0,VALID,104,VALID,0,VALID,22.4667,VALID,23,VALID,0,
2012-09-22, 01:26:04,VALID,1010.29,VALID,0,VALID,104,VALID,0,VALID,22.4667,VALID,23,VALID,0,
2012-09-22, 01:27:04,VALID,1010.28,VALID,0,VALID,104,VALID,0,VALID,22.5073,VALID,23,VALID,0,
2012-09-22, 01:28:04,VALID,1010.28,VALID,0,VALID,104,VALID,0,VALID,22.5073,VALID,23,VALID,0,
2012-09-22, 01:29:04,VALID,1010.26,VALID,0,VALID,104,VALID,0,VALID,22.4878,VALID,23,VALID,0,
2012-09-22, 01:30:04,VALID,1010.29,VALID,0,VALID,104,VALID,0,VALID,22.4667,VALID,23,VALID,0,
2012-09-22, 01:31:04,VALID,1010.24,VALID,0,VALID,104,VALID,0,VALID,22.4667,VALID,82,VALID,0,
2012-09-22, 01:32:04,VALID,1010.25,VALID,0,VALID,104,VALID,0.112112,VALID,22.4844,VALID,85,VALID,0,
2012-09-22, 01:33:04,VALID,1010.23,VALID,0,VALID,104,VALID,0.112112,VALID,22.4844,VALID,85,VALID,0,
2012-09-22, 01:34:04,VALID,1010.22,VALID,0,VALID,104,VALID,0,VALID,22.4861,VALID,85,VALID,0,
2012-09-22, 01:35:04,VALID,1010.24,VALID,0,VALID,104,VALID,0.112112,VALID,22.465,VALID,85,VALID,0,
2012-09-22, 01:36:04,VALID,1010.23,VALID,0,VALID,104,VALID,0,VALID,22.465,VALID,85,VALID,0,
2012-09-22, 01:37:04,VALID,1010.25,VALID,0,VALID,104,VALID,0,VALID,22.465,VALID,85,VALID,0,
2012-09-22, 01:38:04,VALID,1010.22,VALID,0,VALID,104,VALID,0.112112,VALID,22.465,VALID,85,VALID,0,
2012-09-22, 01:39:04,VALID,1010.21,VALID,0,VALID,104,VALID,0.112112,VALID,22.465,VALID,85,VALID,0,
2012-09-22, 01:40:04,VALID,1010.21,VALID,0,VALID,104,VALID,0,VALID,22.465,VALID,85,VALID,0,
2012-09-22, 01:41:04,VALID,1010.21,VALID,0,VALID,104,VALID,0.112112,VALID,22.4455,VALID,85,VALID,0,
2012-09-22, 01:42:04,VALID,1010.19,VALID,0,VALID,104,VALID,0,VALID,22.4667,VALID,85,VALID,0,
2012-09-22, 01:43:04,VALID,1010.18,VALID,0,VALID,104,VALID,0,VALID,22.4667,VALID,85,VALID,0,
2012-09-22, 01:44:04,VALID,1010.19,VALID,0,VALID,104,VALID,0,VALID,22.4667,VALID,85,VALID,0,
2012-09-22, 01:45:04,VALID,1010.16,VALID,0,VALID,104,VALID,0.112112,VALID,22.4455,VALID,60,VALID,0,
2012-09-22, 01:46:04,VALID,1010.17,VALID,0,VALID,104,VALID,0,VALID,22.4455,VALID,60,VALID,0,
2012-09-22, 01:47:04,VALID,1010.16,VALID,0,VALID,104,VALID,0,VALID,22.4472,VALID,60,VALID,0,
2012-09-22, 01:48:04,VALID,1010.2,VALID,0,VALID,104,VALID,0.112112,VALID,22.4455,VALID,60,VALID,0,
2012-09-22, 01:49:04,VALID,1010.23,VALID,0,VALID,104,VALID,0.112112,VALID,22.4472,VALID,60,VALID,0,
2012-09-22, 01:50:04,VALID,1010.23,VALID,0,VALID,104,VALID,0.112112,VALID,22.4455,VALID,60,VALID,0,
2012-09-22, 01:51:04,VALID,1010.25,VALID,0,VALID,104,VALID,0.112112,VALID,22.4455,VALID,60,VALID,0,
2012-09-22, 01:52:04,VALID,1010.26,VALID,0,VALID,104,VALID,0.112112,VALID,22.4472,VALID,60,VALID,0,
2012-09-22, 01:53:04,VALID,1010.27,VALID,0,VALID,104,VALID,0.112112,VALID,22.4455,VALID,60,VALID,0,
2012-09-22, 01:54:04,VALID,1010.27,VALID,0,VALID,104,VALID,0,VALID,22.4455,VALID,60,VALID,0,
2012-09-22, 01:55:04,VALID,1010.25,VALID,0,VALID,104,VALID,0.112112,VALID,22.465,VALID,60,VALID,0,
2012-09-22, 01:56:04,VALID,1010.25,VALID,0,VALID,104,VALID,0.112112,VALID,22.4844,VALID,60,VALID,0,
2012-09-22, 01:57:04,VALID,1010.24,VALID,0,VALID,104,VALID,0.112112,VALID,22.4844,VALID,60,VALID,0,
2012-09-22, 01:58:04,VALID,1010.25,VALID,0,VALID,104,VALID,0.112112,VALID,22.4861,VALID,60,VALID,0,
2012-09-22, 01:59:04,VALID,1010.29,VALID,0,VALID,104,VALID,0.112112,VALID,22.4455,VALID,60,VALID,0,
2012-09-22, 02:00:04,VALID,1010.27,VALID,0,VALID,104,VALID,0.112112,VALID,22.4455,VALID,60,VALID,0,
2012-09-22, 02:01:04,VALID,1010.28,VALID,0,VALID,104,VALID,0.112112,VALID,22.4667,VALID,60,VALID,0,
2012-09-22, 02:02:04,VALID,1010.29,VALID,0,VALID,104,VALID,0,VALID,22.4667,VALID,60,VALID,0,
2012-09-22, 02:03:04,VALID,1010.25,VALID,0,VALID,104,VALID,0,VALID,22.4667,VALID,60,VALID,0,
2012-09-22, 02:04:04,VALID,1010.23,VALID,0,VALID,104,VALID,0,VALID,22.4667,VALID,60,VALID,0,
2012-09-22, 02:05:04,VALID,1010.25,VALID,0,VALID,104,VALID,0,VALID,22.4878,VALID,60,VALID,0,
2012-09-22, 02:06:04,VALID,1010.24,VALID,0,VALID,104,VALID,0,VALID,22.4878,VALID,60,VALID,0,
2012-09-22, 02:07:04,VALID,1010.22,VALID,0,VALID,104,VALID,0,VALID,22.4861,VALID,60,VALID,0,
2012-09-22, 02:08:04,VALID,1010.24,VALID,0,VALID,104,VALID,0,VALID,22.4861,VALID,60,VALID,0,
2012-09-22, 02:09:04,VALID,1010.22,VALID,0,VALID,104,VALID,0,VALID,22.4861,VALID,60,VALID,0,
2012-09-22, 02:10:04,VALID,1010.19,VALID,0,VALID,104,VALID,0,VALID,22.5073,VALID,60,VALID,0,
2012-09-22, 02:11:04,VALID,1010.21,VALID,0,VALID,104,VALID,0,VALID,22.4667,VALID,60,VALID,0,
2012-09-22, 02:12:04,VALID,1010.23,VALID,0,VALID,104,VALID,0,VALID,22.4878,VALID,60,VALID,0,
2012-09-22, 02:13:04,VALID,1010.24,VALID,0,VALID,104,VALID,0,VALID,22.4861,VALID,60,VALID,0,
2012-09-22, 02:14:04,VALID,1010.26,VALID,0,VALID,104,VALID,0,VALID,22.4667,VALID,60,VALID,0,
2012-09-22, 02:15:04,VALID,1010.26,VALID,0,VALID,104,VALID,0,VALID,22.5073,VALID,60,VALID,0,
2012-09-22, 02:16:04,VALID,1010.27,VALID,0,VALID,104,VALID,0,VALID,22.4878,VALID,60,VALID,0,
2012-09-22, 02:17:04,VALID,1010.28,VALID,0,VALID,104,VALID,0.112112,VALID,22.4455,VALID,145,VALID,0,
2012-09-22, 02:18:04,VALID,1010.28,VALID,0,VALID,104,VALID,0,VALID,22.426,VALID,152,VALID,0,
2012-09-22, 02:19:04,VALID,1010.26,VALID,0,VALID,104,VALID,0.112112,VALID,22.4472,VALID,152,VALID,0,
2012-09-22, 02:20:04,VALID,1010.27,VALID,0,VALID,104,VALID,0.112112,VALID,22.4472,VALID,152,VALID,0,
2012-09-22, 02:21:04,VALID,1010.28,VALID,0,VALID,104,VALID,0.112112,VALID,22.4472,VALID,152,VALID,0,
2012-09-22, 02:22:04,VALID,1010.27,VALID,0,VALID,104,VALID,0.112112,VALID,22.426,VALID,152,VALID,0,
2012-09-22, 02:23:04,VALID,1010.28,VALID,0,VALID,104,VALID,0.112112,VALID,22.4472,VALID,152,VALID,0,
2012-09-22, 02:24:04,VALID,1010.28,VALID,0,VALID,104,VALID,0.112112,VALID,22.4065,VALID,152,VALID,0,
2012-09-22, 02:25:04,VALID,1010.3,VALID,0,VALID,104,VALID,0.112112,VALID,22.4082,VALID,152,VALID,0,
2012-09-22, 02:26:04,VALID,1010.31,VALID,0,VALID,104,VALID,0.112112,VALID,22.387,VALID,152,VALID,0,
2012-09-22, 02:27:04,VALID,1010.35,VALID,0,VALID,104,VALID,0.112112,VALID,22.387,VALID,152,VALID,0,
2012-09-22, 02:28:04,VALID,1010.34,VALID,0,VALID,104,VALID,0.112112,VALID,22.387,VALID,152,VALID,0,
2012-09-22, 02:29:04,VALID,1010.33,VALID,0,VALID,104,VALID,0.112112,VALID,22.3676,VALID,152,VALID,0,
2012-09-22, 02:30:04,VALID,1010.35,VALID,0,VALID,104,VALID,0.112112,VALID,22.3676,VALID,152,VALID,0,
2012-09-22, 02:31:04,VALID,1010.35,VALID,0,VALID,104,VALID,0,VALID,22.3887,VALID,152,VALID,0,
2012-09-22, 02:32:04,VALID,1010.33,VALID,0,VALID,104,VALID,0.112112,VALID,22.3887,VALID,152,VALID,0,
2012-09-22, 02:33:04,VALID,1010.34,VALID,0,VALID,104,VALID,0.112112,VALID,22.3887,VALID,152,VALID,0,
2012-09-22, 02:34:04,VALID,1010.32,VALID,0,VALID,104,VALID,0.112112,VALID,22.3693,VALID,152,VALID,0,
2012-09-22, 02:35:04,VALID,1010.32,VALID,0,VALID,104,VALID,0.112112,VALID,22.3887,VALID,152,VALID,0,
2012-09-22, 02:36:04,VALID,1010.29,VALID,0,VALID,104,VALID,0,VALID,22.3693,VALID,152,VALID,0,
2012-09-22, 02:37:04,VALID,1010.3,VALID,0,VALID,104,VALID,0,VALID,22.3887,VALID,152,VALID,0,
2012-09-22, 02:38:04,VALID,1010.26,VALID,0,VALID,104,VALID,0.112112,VALID,22.3887,VALID,152,VALID,0,
2012-09-22, 02:39:04,VALID,1010.23,VALID,0,VALID,104,VALID,0.112112,VALID,22.3676,VALID,152,VALID,0,
2012-09-22, 02:40:04,VALID,1010.21,VALID,0,VALID,104,VALID,0.112112,VALID,22.3676,VALID,152,VALID,0,
2012-09-22, 02:41:04,VALID,1010.17,VALID,0,VALID,104,VALID,0,VALID,22.3481,VALID,152,VALID,0,
2012-09-22, 02:42:04,VALID,1010.19,VALID,0,VALID,104,VALID,0.112112,VALID,22.3498,VALID,152,VALID,0,
2012-09-22, 02:43:04,VALID,1010.15,VALID,0,VALID,104,VALID,0,VALID,22.3498,VALID,152,VALID,0,
2012-09-22, 02:44:04,VALID,1010.14,VALID,0,VALID,104,VALID,0.112112,VALID,22.3286,VALID,152,VALID,0,
2012-09-22, 02:45:04,VALID,1010.14,VALID,0,VALID,104,VALID,0.112112,VALID,22.3286,VALID,152,VALID,0,
2012-09-22, 02:46:04,VALID,1010.12,VALID,0,VALID,104,VALID,0.112112,VALID,22.3498,VALID,152,VALID,0,
2012-09-22, 02:47:04,VALID,1010.1,VALID,0,VALID,104,VALID,0.112112,VALID,22.3286,VALID,152,VALID,0,
2012-09-22, 02:48:04,VALID,1010.06,VALID,0,VALID,104,VALID,0.112112,VALID,22.3693,VALID,152,VALID,0,
2012-09-22, 02:49:04,VALID,1010.06,VALID,0,VALID,104,VALID,0.112112,VALID,22.3693,VALID,152,VALID,0,
2012-09-22, 02:50:04,VALID,1010.07,VALID,0,VALID,104,VALID,0.112112,VALID,22.3498,VALID,152,VALID,0,
2012-09-22, 02:51:04,VALID,1010.08,VALID,0,VALID,104,VALID,0.112112,VALID,22.3498,VALID,152,VALID,0,
2012-09-22, 02:52:04,VALID,1010.11,VALID,0,VALID,104,VALID,0.112112,VALID,22.3091,VALID,152,VALID,0,
2012-09-22, 02:53:04,VALID,1010.11,VALID,0,VALID,104,VALID,0.112112,VALID,22.3303,VALID,152,VALID,0,
2012-09-22, 02:54:04,VALID,1010.1,VALID,0,VALID,104,VALID,0.112112,VALID,22.3303,VALID,152,VALID,0,
2012-09-22, 02:55:04,VALID,1010.1,VALID,0,VALID,104,VALID,0.112112,VALID,22.3286,VALID,152,VALID,0,
2012-09-22, 02:56:04,VALID,1010.09,VALID,0,VALID,104,VALID,0.112112,VALID,22.3498,VALID,152,VALID,0,
2012-09-22, 02:57:04,VALID,1010.08,VALID,0,VALID,104,VALID,0.112112,VALID,22.3286,VALID,152,VALID,0,
2012-09-22, 02:58:04,VALID,1010.08,VALID,0,VALID,104,VALID,0.112112,VALID,22.3498,VALID,152,VALID,0,
2012-09-22, 02:59:04,VALID,1010.08,VALID,0,VALID,104,VALID,0.112112,VALID,22.3693,VALID,152,VALID,0,
2012-09-22, 03:00:04,VALID,1010.1,VALID,0,VALID,104,VALID,0.112112,VALID,22.3693,VALID,152,VALID,0,
2012-09-22, 03:01:04,VALID,1010.06,VALID,0,VALID,104,VALID,0.112112,VALID,22.3498,VALID,152,VALID,0,
2012-09-22, 03:02:04,VALID,1010.08,VALID,0,VALID,104,VALID,0.112112,VALID,22.3498,VALID,152,VALID,0,
2012-09-22, 03:03:04,VALID,1010.09,VALID,0,VALID,104,VALID,0.112112,VALID,22.3286,VALID,152,VALID,0,
2012-09-22, 03:04:04,VALID,1010.09,VALID,0,VALID,104,VALID,0,VALID,22.3303,VALID,152,VALID,0,
2012-09-22, 03:05:04,VALID,1010.1,VALID,0,VALID,104,VALID,0.112112,VALID,22.3498,VALID,152,VALID,0,
2012-09-22, 03:06:04,VALID,1010.11,VALID,0,VALID,104,VALID,0,VALID,22.3498,VALID,152,VALID,0,
2012-09-22, 03:07:04,VALID,1010.14,VALID,0,VALID,104,VALID,0,VALID,22.3303,VALID,152,VALID,0,
2012-09-22, 03:08:04,VALID,1010.14,VALID,0,VALID,104,VALID,0,VALID,22.3481,VALID,126,VALID,0,
2012-09-22, 03:09:04,VALID,1010.14,VALID,0,VALID,104,VALID,0,VALID,22.3676,VALID,126,VALID,0,
2012-09-22, 03:10:04,VALID,1010.14,VALID,0,VALID,104,VALID,0.112112,VALID,22.3676,VALID,126,VALID,0,
2012-09-22, 03:11:04,VALID,1010.13,VALID,0,VALID,104,VALID,0,VALID,22.3887,VALID,127,VALID,0,
2012-09-22, 03:12:04,VALID,1010.11,VALID,0,VALID,104,VALID,0.112112,VALID,22.3676,VALID,156,VALID,0,
2012-09-22, 03:13:04,VALID,1010.11,VALID,0,VALID,104,VALID,0.112112,VALID,22.3676,VALID,156,VALID,0,
2012-09-22, 03:14:04,VALID,1010.11,VALID,0,VALID,104,VALID,0,VALID,22.4082,VALID,156,VALID,0,
2012-09-22, 03:15:04,VALID,1010.15,VALID,0,VALID,104,VALID,0.112112,VALID,22.4082,VALID,156,VALID,0,
2012-09-22, 03:16:04,VALID,1010.14,VALID,0,VALID,104,VALID,0.112112,VALID,22.4082,VALID,162,VALID,0,
2012-09-22, 03:17:04,VALID,1010.18,VALID,0,VALID,104,VALID,0,VALID,22.4082,VALID,161,VALID,0,
2012-09-22, 03:18:04,VALID,1010.15,VALID,0,VALID,104,VALID,0,VALID,22.4082,VALID,161,VALID,0,
2012-09-22, 03:19:04,VALID,1010.14,VALID,0,VALID,104,VALID,0,VALID,22.387,VALID,161,VALID,0,
2012-09-22, 03:20:04,VALID,1010.15,VALID,0,VALID,104,VALID,0.112112,VALID,22.4082,VALID,161,VALID,0,
2012-09-22, 03:21:04,VALID,1010.16,VALID,0,VALID,104,VALID,0,VALID,22.4082,VALID,161,VALID,0,
2012-09-22, 03:22:04,VALID,1010.14,VALID,0,VALID,104,VALID,0,VALID,22.3887,VALID,161,VALID,0,
2012-09-22, 03:23:04,VALID,1010.13,VALID,0,VALID,104,VALID,0,VALID,22.4082,VALID,161,VALID,0,
2012-09-22, 03:24:04,VALID,1010.13,VALID,0,VALID,104,VALID,0,VALID,22.3676,VALID,161,VALID,0,
2012-09-22, 03:25:04,VALID,1010.11,VALID,0,VALID,104,VALID,0,VALID,22.4082,VALID,161,VALID,0,
2012-09-22, 03:26:04,VALID,1010.08,VALID,0,VALID,104,VALID,0,VALID,22.4082,VALID,177,VALID,0,
2012-09-22, 03:27:04,VALID,1010.08,VALID,0,VALID,104,VALID,0,VALID,22.4277,VALID,178,VALID,0,
2012-09-22, 03:28:04,VALID,1010.06,VALID,0,VALID,104,VALID,0,VALID,22.4065,VALID,198,VALID,0,
2012-09-22, 03:29:04,VALID,1010.06,VALID,0,VALID,104,VALID,0,VALID,22.4277,VALID,197,VALID,0,
2012-09-22, 03:30:04,VALID,1010.08,VALID,0,VALID,104,VALID,0,VALID,22.4065,VALID,197,VALID,0,
2012-09-22, 03:31:04,VALID,1010.11,VALID,0,VALID,104,VALID,0,VALID,22.4065,VALID,183,VALID,0,
2012-09-22, 03:32:04,VALID,1010.1,VALID,0,VALID,104,VALID,0,VALID,22.426,VALID,179,VALID,0,
2012-09-22, 03:33:04,VALID,1010.1,VALID,0,VALID,104,VALID,0,VALID,22.4277,VALID,179,VALID,0,
2012-09-22, 03:34:04,VALID,1010.1,VALID,0,VALID,104,VALID,0,VALID,22.4065,VALID,155,VALID,0,
2012-09-22, 03:35:04,VALID,1010.08,VALID,0,VALID,104,VALID,0,VALID,22.4472,VALID,155,VALID,0,
2012-09-22, 03:36:04,VALID,1010.07,VALID,0,VALID,104,VALID,0,VALID,22.4065,VALID,155,VALID,0,
2012-09-22, 03:37:04,VALID,1010.09,VALID,0,VALID,104,VALID,0.112112,VALID,22.426,VALID,154,VALID,0,
2012-09-22, 03:38:04,VALID,1010.09,VALID,0,VALID,104,VALID,0.112112,VALID,22.4667,VALID,154,VALID,0,
2012-09-22, 03:39:04,VALID,1010.08,VALID,0,VALID,104,VALID,0.112112,VALID,22.4455,VALID,147,VALID,0,
2012-09-22, 03:40:04,VALID,1010.06,VALID,0,VALID,104,VALID,0.112112,VALID,22.4861,VALID,136,VALID,0,
2012-09-22, 03:41:04,VALID,1010.06,VALID,0,VALID,104,VALID,0.112112,VALID,22.4861,VALID,136,VALID,0,
2012-09-22, 03:42:04,VALID,1010.06,VALID,0,VALID,104,VALID,0.112112,VALID,22.4844,VALID,134,VALID,0,
2012-09-22, 03:43:04,VALID,1010.05,VALID,0,VALID,104,VALID,0.112112,VALID,22.5251,VALID,134,VALID,0,
2012-09-22, 03:44:04,VALID,1010.04,VALID,0,VALID,104,VALID,0,VALID,22.5251,VALID,134,VALID,0,
2012-09-22, 03:45:04,VALID,1010.04,VALID,0,VALID,104,VALID,0,VALID,22.5251,VALID,134,VALID,0,
2012-09-22, 03:46:04,VALID,1010.01,VALID,0,VALID,104,VALID,0.112112,VALID,22.5234,VALID,134,VALID,0,
2012-09-22, 03:47:04,VALID,1010.05,VALID,0,VALID,104,VALID,0,VALID,22.564,VALID,132,VALID,0,
2012-09-22, 03:48:04,VALID,1010.02,VALID,0,VALID,104,VALID,0.112112,VALID,22.5835,VALID,132,VALID,0,
2012-09-22, 03:49:04,VALID,1010.04,VALID,0,VALID,104,VALID,0.112112,VALID,22.5818,VALID,132,VALID,0,
2012-09-22, 03:50:04,VALID,1010.02,VALID,0,VALID,104,VALID,0,VALID,22.603,VALID,132,VALID,0,
2012-09-22, 03:51:04,VALID,1010.04,VALID,0,VALID,104,VALID,0,VALID,22.6225,VALID,132,VALID,0,
2012-09-22, 03:52:04,VALID,1009.99,VALID,0,VALID,104,VALID,0,VALID,22.6013,VALID,132,VALID,0,
2012-09-22, 03:53:04,VALID,1010.01,VALID,0,VALID,104,VALID,0,VALID,22.6225,VALID,132,VALID,0,
2012-09-22, 03:54:04,VALID,1010.03,VALID,0,VALID,104,VALID,0,VALID,22.642,VALID,132,VALID,0,
2012-09-22, 03:55:04,VALID,1009.99,VALID,0,VALID,104,VALID,0.112112,VALID,22.642,VALID,132,VALID,0,
2012-09-22, 03:56:04,VALID,1010.01,VALID,0,VALID,104,VALID,0.112112,VALID,22.6614,VALID,132,VALID,0,
2012-09-22, 03:57:04,VALID,1010.02,VALID,0,VALID,104,VALID,0,VALID,22.6614,VALID,132,VALID,0,
2012-09-22, 03:58:04,VALID,1010.03,VALID,0,VALID,104,VALID,0,VALID,22.6809,VALID,119,VALID,0,
2012-09-22, 03:59:04,VALID,1010.04,VALID,0,VALID,104,VALID,0.112112,VALID,22.6792,VALID,113,VALID,0,
2012-09-22, 04:00:04,VALID,1010.04,VALID,0,VALID,104,VALID,0,VALID,22.7004,VALID,109,VALID,0,
2012-09-22, 04:01:04,VALID,1010.02,VALID,0,VALID,104,VALID,0,VALID,22.7199,VALID,108,VALID,0,
2012-09-22, 04:02:04,VALID,1010.02,VALID,0,VALID,104,VALID,0,VALID,22.7004,VALID,108,VALID,0,